User: anonymous   Login
Location: Central Coast
(33.3208°S, 151.2336°E)
Time: 20:14:23
(UTC+10:00)
Language:

Tiangong 2 - Orbit

View from above orbital plane
View from above orbital plane
View from above satellite
View from above satellite

Ground track
Ground track

The orbit data is extracted from the following two-line orbital elements,

1 41765U 16057A   18111.88021944  .00004905  00000-0  61177-4 0  9994
2 41765  42.7852 318.6318 0004450 244.5689 244.0864 15.61018201 91186
Epoch (UTC): 21 April 2018 21:07:30
Eccentricity: 0.0004450
inclination: 42.7852°
perigee height: 382 km
apogee height: 388 km
right ascension of ascending node: 318.6318°
argument of perigee: 244.5689°
revolutions per day: 15.61018201
mean anomaly at epoch: 244.0864°
orbit number at epoch: 9118

The dashed part of the orbit path shows where the satellite is in the earth's shadow,  

DLR